Wind_Speed
12 13 13 14 16 17 16 16 18 20 19 21 24 25 27 30 33 35 36 37 38 40 41 42 42 43 44 45 46 48 50 50 52 53 54 56 56 57 60 61 61 59 58 53
16 15 15 15 15 15 15 15 16 18 19 22 25 28 29 31 33 34 35 37 39 40 41 41 41 41 41 42 44 47 50 53 55 57 58 58 59 59 59 60 59 58 55 57
16 16 16 17 15 14 14 15 16 19 20 23 27 34 34 30 33 34 35 37 39 41 42 43 43 44 46 47 48 48 49 51 53 54 56 57 58 59 60 59 57 55 55 54
19 18 17 17 16 15 17 16 18 20 24 26 31 25 37 32 34 36 38 40 41 41 42 45 45 45 45 44 46 49 51 52 55 57 60 60 62 63 62 60 61 62 63 59
23 22 20 19 17 18 18 19 21 23 25 27 30 30 34 36 38 42 42 43 43 44 44 44 46 48 49 50 51 49 49 55 57 61 62 63 65 67 64 64 66 68 67 65
24 26 22 19 16 16 18 21 23 24 26 28 28 31 26 41 41 44 44 45 44 45 45 44 45 46 47 48 49 50 53 54 55 61 66 69 69 65 63 68 70 66 66 66
22 24 24 20 18 18 19 21 22 24 29 27 33 35 38 40 41 43 46 46 46 46 48 48 48 49 49 50 50 52 53 53 56 61 63 64 67 71 76 76 77 74 77 76
18 21 19 17 17 17 18 20 23 25 27 28 36 38 39 41 43 46 47 49 50 52 51 51 51 52 52 52 51 51 52 54 56 56 58 61 63 67 71 73 74 79 80 78
17 17 16 16 16 18 20 21 24 27 29 33 37 45 48 48 50 51 54 56 57 57 55 55 54 53 52 51 50 50 49 48 48 48 50 53 55 55 56 59 63 65 68 73
18 19 16 17 18 19 21 23 27 31 32 34 33 43 48 50 53 58 59 58 58 58 57 55 54 52 50 49 48 47 46 46 46 47 48 49 52 54 56 57 59 59 58 59
18 18 18 19 18 20 22 23 24 26 29 32 39 40 46 49 54 56 57 60 62 60 57 56 52 50 49 49 48 47 45 44 43 42 42 45 45 45 48 52 54 56 55 55
18 20 21 21 20 20 21 24 26 30 33 37 41 46 48 52 56 59 62 63 62 57 55 53 49 49 49 49 47 44 43 43 42 43 45 45 47 46 44 45 48 53 56 57
21 22 22 22 22 21 22 25 26 28 32 34 39 45 52 58 61 63 65 62 56 53 51 52 50 47 46 43 40 38 38 38 39 42 45 44 40 35 34 39 41 42 43 46
21 22 22 21 22 23 22 25 26 29 34 39 40 44 50 55 61 63 64 57 51 47 45 46 46 45 42 39 35 33 34 39 40 40 36 33 34 36 38 36 36 37 39 38
21 20 20 21 22 21 22 24 26 32 36 40 43 47 53 58 64 67 62 57 50 46 43 43 42 40 35 32 32 34 37 38 37 33 33 36 36 35 34 35 33 34 32 32
21 20 21 22 24 23 22 24 27 31 36 41 45 49 55 61 66 68 60 54 47 42 40 39 36 35 35 34 34 34 36 34 34 36 35 33 30 28 28 30 30 29 28 26
20 22 23 21 22 24 23 26 28 32 39 44 47 52 57 64 69 65 56 50 46 41 36 33 35 33 32 32 32 30 30 33 33 32 32 32 30 28 28 28 27 27 24 21
22 24 24 23 24 25 24 27 31 34 40 45 50 55 59 65 71 64 51 48 47 41 37 36 34 29 28 27 28 31 33 35 36 36 34 32 32 30 29 29 26 23 20 16
22 24 24 25 26 26 27 30 34 40 41 47 51 56 60 67 71 61 51 47 47 41 40 36 30 29 27 33 38 41 42 43 42 40 38 36 34 29 28 26 23 20 15 12
23 23 24 26 29 30 30 33 37 42 48 51 55 59 61 68 69 59 48 44 39 40 37 31 28 28 34 40 43 42 42 40 37 34 32 30 29 23 23 21 19 16 11 8
22 23 24 27 30 31 32 35 39 42 48 52 55 59 62 68 67 57 48 44 38 37 32 26 27 32 38 42 40 38 36 31 28 25 20 19 20 17 16 14 15 9 9 7
24 24 23 26 30 32 33 36 38 42 47 52 56 59 62 67 65 52 46 41 39 34 25 23 27 32 38 39 35 35 30 23 18 13 10 11 13 13 10 10 5 3 3 0
24 25 24 27 30 31 34 37 41 44 48 51 56 59 63 66 63 49 43 40 35 27 20 22 25 33 42 38 33 29 26 21 14 9 4 7 7 8 6 4 8 8 8 6
24 25 24 27 29 31 34 37 40 44 47 52 56 59 63 64 57 46 42 36 34 21 17 20 29 34 38 35 30 28 23 19 16 12 8 6 5 5 8 13 11 9 12 11
25 24 26 26 29 31 33 37 40 44 47 52 56 57 62 62 51 44 40 32 23 18 19 23 27 30 33 31 28 26 24 18 15 13 11 9 8 11 15 14 12 14 15 15
24 25 26 27 28 30 33 37 39 43 46 51 54 57 61 59 45 39 32 27 22 17 21 23 26 29 31 25 25 27 22 19 15 12 10 14 13 16 15 15 14 16 17 21
Wind_Direction
289 280 270 268 264 263 266 265 268 272 281 285 290 293 296 298 297 295 294 293 291 289 288 286 283 281 279 277 274 271 270 268 266 266 265 264 264 263 264 265 267 267 270 269
290 285 278 270 264 262 260 262 269 279 284 287 290 295 297 301 300 301 299 297 296 294 292 289 286 283 277 273 270 270 270 271 271 269 270 269 267 266 267 268 268 268 269 267
286 289 281 277 272 269 267 271 276 280 291 292 300 305 305 306 304 301 298 297 295 294 292 289 286 284 281 278 274 270 267 267 267 267 267 267 265 265 266 266 266 267 268 265
297 295 289 285 286 288 289 290 297 299 301 303 307 303 305 311 307 305 304 301 299 298 296 295 292 288 283 276 270 268 267 265 263 262 263 263 264 265 266 267 265 267 270 269
299 294 293 291 293 295 299 304 302 300 300 303 305 308 306 315 312 309 307 306 305 303 300 297 295 292 290 287 284 276 266 261 261 261 261 260 261 264 267 264 268 270 269 267
292 292 294 295 289 292 294 292 294 299 305 312 315 314 313 316 316 311 311 310 308 305 301 297 293 290 288 284 281 279 278 274 265 260 258 259 260 262 258 262 263 264 268 265
284 286 291 292 290 287 291 299 306 315 316 316 315 316 314 316 313 313 312 312 311 308 304 301 298 294 289 283 280 277 275 270 265 264 265 263 262 260 259 262 261 262 266 268
286 290 284 284 284 291 299 305 308 312 312 314 313 317 320 317 315 315 316 317 314 312 309 305 300 296 292 290 286 280 276 272 269 265 263 264 263 263 263 263 262 259 260 262
286 282 284 284 291 300 303 307 309 310 312 318 321 322 322 323 322 323 322 320 317 314 310 305 301 298 295 292 289 287 284 279 273 270 271 271 271 270 269 267 266 266 266 265
286 288 287 291 297 303 308 312 314 319 323 325 322 323 325 326 325 325 323 318 314 310 307 304 300 297 295 292 290 289 286 281 276 275 270 271 271 270 270 269 268 266 269 270
286 289 293 296 300 306 309 311 312 315 318 326 323 326 326 325 325 323 319 316 313 309 307 303 301 300 297 294 292 291 287 283 280 278 276 274 275 274 271 269 269 269 270 270
292 294 296 297 301 306 309 308 314 320 326 330 327 331 331 329 328 324 320 315 313 310 308 305 303 300 298 296 295 293 291 287 286 285 286 289 291 288 281 274 270 268 268 270
291 293 294 295 298 305 306 307 313 319 323 326 330 336 334 334 330 326 323 318 314 312 311 307 307 306 304 301 298 296 295 294 294 295 296 294 288 285 285 285 279 276 277 279
289 290 293 294 298 303 306 307 316 321 323 325 331 331 331 334 333 330 326 319 314 314 313 310 310 310 308 305 301 300 299 299 300 299 296 292 290 289 290 288 285 283 285 281
292 291 293 293 294 297 301 308 317 321 322 325 328 328 327 330 335 333 328 321 321 321 318 313 311 311 312 306 304 305 305 304 301 297 294 294 296 295 292 291 287 290 290 287
290 290 294 293 295 298 302 307 312 316 319 325 327 329 331 333 336 337 329 322 322 320 318 314 314 313 311 309 307 304 301 297 295 295 294 294 296 298 297 294 289 294 294 292
287 292 294 292 293 295 297 303 309 315 318 324 327 328 331 335 335 338 328 323 324 325 323 321 318 315 312 310 308 306 299 297 295 294 293 289 290 296 294 302 297 298 298 291
288 292 294 293 294 292 299 303 307 313 320 324 327 331 333 334 336 338 333 329 329 328 326 326 323 321 320 321 318 312 305 299 294 292 289 286 285 289 292 294 299 298 293 283
288 292 292 294 293 296 301 302 308 314 322 324 328 331 333 335 338 338 336 332 330 327 328 328 325 323 323 321 318 314 308 301 296 290 284 280 279 283 288 291 298 295 279 271
287 289 293 295 296 300 305 308 311 318 320 328 329 331 333 336 337 337 334 331 329 326 327 327 327 323 321 320 319 316 310 304 298 289 281 272 268 272 278 286 291 287 249 254
284 288 292 293 295 300 305 308 313 318 325 326 327 331 333 338 337 337 333 333 331 328 327 331 331 328 326 326 324 323 320 309 303 296 282 264 262 263 267 280 279 265 231 244
284 287 289 290 294 299 304 309 312 317 321 325 329 331 333 338 337 336 335 333 331 329 329 334 333 335 338 337 338 339 334 329 317 301 277 257 256 242 256 263 252 186 173 105
283 285 288 289 296 302 305 310 315 319 324 325 328 331 334 338 337 337 335 334 330 330 332 335 347 350 346 346 350 352 355 357 359 339 264 229 213 217 232 191 127 110 94 91
282 286 288 291 295 301 305 310 315 319 322 324 329 332 335 337 337 337 336 334 330 331 329 332 343 346 344 347 353 355 5 13 20 35 64 106 141 158 143 131 123 114 91 96
282 286 288 291 297 303 307 311 316 318 321 325 330 334 336 337 338 339 338 339 338 334 329 336 340 348 350 359 8 8 18 23 33 55 70 88 116 119 127 122 115 102 107 114
281 288 290 292 298 303 308 313 316 318 323 326 331 334 336 337 339 342 343 343 344 339 334 334 337 343 351 4 19 14 19 26 41 74 83 94 106 111 114 110 109 112 118 122
Height
5890 5890 5890 5889 5888 5888 5888 5887 5886 5884 5883 5882 5879 5878 5877 5875 5872 5869 5867 5863 5859 5856 5853 5851 5847 5845 5842 5839 5836 5834 5831 5828 5826 5824 5823 5822 5821 5821 5818 5816 5814 5814 5812 5812
5886 5886 5885 5885 5885 5885 5884 5884 5883 5881 5880 5878 5874 5872 5871 5868 5864 5861 5857 5854 5849 5845 5841 5839 5836 5833 5831 5828 5825 5821 5818 5815 5813 5810 5809 5808 5806 5806 5804 5804 5804 5803 5801 5800
5883 5882 5881 5881 5881 5881 5881 5880 5879 5878 5875 5874 5869 5863 5862 5861 5857 5852 5849 5846 5841 5835 5830 5827 5824 5820 5816 5814 5811 5808 5806 5802 5800 5797 5795 5794 5792 5791 5790 5788 5789 5787 5787 5787
5879 5878 5877 5876 5875 5876 5874 5874 5873 5871 5870 5867 5864 5862 5852 5851 5847 5843 5839 5834 5830 5827 5821 5814 5810 5806 5803 5800 5796 5794 5791 5788 5785 5782 5780 5778 5776 5775 5775 5774 5773 5774 5773 5773
5875 5873 5873 5872 5871 5870 5869 5868 5867 5865 5863 5860 5857 5854 5845 5842 5836 5832 5827 5823 5818 5813 5809 5804 5797 5791 5787 5783 5780 5778 5776 5773 5769 5767 5765 5763 5761 5760 5759 5757 5759 5759 5759 5758
5870 5868 5868 5868 5868 5867 5866 5864 5862 5859 5857 5854 5851 5847 5844 5835 5829 5821 5816 5811 5807 5801 5796 5792 5788 5782 5776 5770 5766 5761 5757 5755 5753 5751 5748 5747 5746 5745 5743 5743 5742 5742 5740 5741
5866 5864 5863 5864 5863 5862 5860 5858 5856 5854 5849 5847 5843 5839 5833 5828 5821 5815 5808 5801 5795 5789 5782 5777 5772 5767 5763 5758 5754 5748 5744 5740 5736 5734 5731 5729 5728 5727 5726 5726 5726 5726 5726 5725
5862 5860 5860 5859 5858 5857 5855 5853 5851 5847 5845 5843 5835 5830 5826 5820 5813 5807 5798 5791 5783 5775 5768 5761 5754 5749 5744 5739 5735 5730 5726 5723 5719 5716 5714 5712 5710 5709 5708 5707 5707 5707 5707 5706
5859 5857 5856 5854 5853 5851 5849 5847 5845 5841 5838 5833 5827 5818 5812 5808 5799 5791 5784 5776 5767 5759 5752 5744 5738 5731 5726 5721 5716 5711 5708 5705 5702 5700 5698 5696 5693 5692 5691 5689 5688 5688 5687 5687
5854 5852 5851 5849 5848 5846 5843 5840 5836 5831 5830 5827 5823 5815 5806 5797 5788 5779 5772 5763 5755 5746 5737 5729 5722 5716 5711 5705 5700 5695 5692 5689 5686 5684 5682 5680 5678 5676 5674 5672 5672 5670 5671 5670
5848 5847 5847 5844 5843 5839 5837 5834 5832 5829 5826 5821 5815 5810 5799 5790 5782 5774 5764 5752 5741 5732 5724 5715 5708 5702 5696 5691 5686 5681 5677 5673 5671 5669 5667 5665 5663 5661 5658 5656 5655 5653 5652 5653
5844 5843 5840 5839 5836 5834 5831 5828 5825 5821 5817 5811 5804 5798 5789 5781 5772 5762 5752 5741 5730 5720 5710 5702 5696 5689 5682 5676 5671 5667 5662 5659 5657 5655 5652 5650 5647 5645 5643 5640 5639 5637 5636 5635
5840 5838 5836 5833 5832 5829 5826 5822 5820 5816 5811 5806 5798 5791 5778 5769 5761 5751 5740 5728 5717 5707 5698 5688 5682 5675 5668 5662 5657 5654 5651 5647 5646 5642 5638 5635 5632 5630 5629 5627 5625 5623 5621 5619
5834 5832 5831 5829 5826 5824 5821 5817 5814 5809 5803 5797 5792 5785 5774 5766 5755 5742 5727 5715 5705 5698 5689 5678 5670 5663 5656 5650 5646 5643 5641 5637 5635 5631 5627 5624 5621 5619 5617 5614 5612 5610 5607 5605
5828 5827 5825 5823 5821 5819 5815 5812 5808 5802 5796 5791 5785 5777 5768 5757 5745 5731 5715 5702 5694 5685 5678 5669 5661 5654 5648 5643 5639 5635 5631 5627 5623 5621 5619 5615 5612 5609 5606 5604 5601 5599 5596 5594
5822 5821 5819 5817 5814 5812 5810 5806 5803 5798 5792 5785 5777 5769 5757 5747 5734 5719 5704 5692 5685 5677 5669 5661 5653 5646 5640 5635 5631 5627 5623 5619 5615 5612 5609 5605 5603 5601 5598 5595 5593 5590 5588 5584
5817 5815 5814 5812 5809 5806 5805 5801 5796 5792 5785 5778 5769 5760 5748 5735 5723 5710 5696 5684 5674 5667 5659 5653 5646 5639 5633 5628 5623 5620 5615 5611 5607 5603 5601 5597 5595 5593 5591 5588 5585 5582 5579 5577
5811 5809 5807 5806 5803 5801 5799 5795 5790 5786 5779 5771 5761 5750 5739 5727 5713 5701 5687 5674 5665 5657 5651 5646 5638 5632 5626 5621 5616 5612 5606 5601 5597 5593 5590 5588 5587 5586 5583 5581 5579 5576 5573 5572
5805 5804 5801 5799 5797 5795 5792 5788 5783 5776 5774 5763 5753 5742 5731 5719 5705 5692 5680 5669 5658 5650 5644 5638 5631 5626 5621 5615 5608 5602 5595 5588 5583 5580 5578 5577 5577 5577 5577 5575 5573 5570 5568 5568
5800 5798 5796 5793 5789 5787 5785 5780 5775 5768 5760 5752 5743 5732 5723 5711 5698 5684 5674 5665 5655 5647 5639 5632 5627 5621 5614 5607 5599 5590 5581 5574 5569 5565 5564 5565 5567 5569 5570 5569 5568 5566 5565 5565
5794 5792 5790 5786 5783 5782 5778 5773 5768 5763 5757 5747 5737 5726 5715 5703 5689 5677 5666 5658 5650 5640 5633 5629 5622 5615 5607 5599 5590 5580 5571 5563 5558 5555 5555 5556 5559 5563 5565 5565 5564 5563 5562 5563
5787 5786 5785 5781 5778 5776 5773 5768 5764 5758 5750 5739 5729 5719 5708 5696 5682 5670 5661 5651 5643 5636 5630 5625 5619 5612 5604 5594 5583 5574 5564 5556 5552 5550 5550 5552 5555 5559 5561 5562 5562 5562 5562 5563
5781 5780 5779 5776 5772 5769 5766 5762 5755 5749 5742 5732 5723 5713 5701 5689 5676 5665 5655 5647 5639 5632 5627 5622 5616 5609 5600 5590 5580 5571 5563 5556 5550 5548 5548 5551 5554 5557 5559 5562 5563 5563 5564 5565
5774 5773 5772 5770 5768 5764 5760 5756 5750 5744 5736 5726 5717 5706 5695 5683 5670 5660 5650 5641 5634 5628 5624 5619 5614 5606 5598 5588 5579 5571 5564 5558 5554 5552 5552 5553 5555 5558 5561 5564 5565 5566 5568 5569
5767 5767 5765 5764 5761 5758 5754 5750 5744 5737 5729 5720 5710 5700 5689 5676 5664 5654 5645 5637 5631 5627 5623 5618 5612 5605 5597 5588 5580 5573 5567 5562 5559 5558 5557 5558 5559 5562 5565 5567 5568 5571 5571 5572
5761 5760 5759 5757 5755 5752 5749 5743 5738 5731 5723 5714 5705 5695 5684 5670 5660 5651 5642 5635 5630 5626 5621 5616 5611 5604 5598 5590 5584 5577 5572 5568 5565 5563 5563 5563 5565 5568 5571 5573 5574 5576 5575 5578